User: anonymous   Login
Location: Unspecified
(0.0000°N, 0.0000°E)
Time: 00:59:42
(UTC+00:00)
Language:

SDA-1668 - Orbit

View from above orbital plane
View from above orbital plane
View from above satellite
View from above satellite

Ground track
Ground track

The orbit is defined by the following mean orbital elements,

1 65978U          26145.49338227 +.00000000 +00000-0 -62396-2 0 00003
2 65978  81.3006 232.5254 0002377 273.4172  86.6713 13.85413327    01
Epoch (UTC): 25 May 2026 11:50:28
Eccentricity: 0.0002377
inclination: 81.3006°
perigee height: 943 km
apogee height: 946 km
right ascension of ascending node: 232.5254°
argument of perigee: 273.4172°
revolutions per day: 13.85413327
mean anomaly at epoch: 86.6713°

The dashed part of the orbit path shows where the satellite is in the earth's shadow,  

DLR